| time (UTC) | temp F | wind direction | speed knots | gust knots | rain 1hr in | rain 24hr in | rain mn in | humidity % | barometer mb |
| 20260901131513 | 69 | 162 | 0.0 | 3.5 | 0.00 | 0.00 | 0.00 | 78 | 1017.8 |
| 20260901130007 | 67 | 279 | 0.9 | 4.3 | 0.00 | 0.00 | 0.00 | 80 | 1017.7 |
| 20260901124504 | 66 | 250 | 0.9 | 3.5 | 0.00 | 0.00 | 0.00 | 80 | 1017.7 |
| 20260901123002 | 66 | 243 | 0.0 | 2.6 | 0.00 | 0.00 | 0.00 | 83 | 1017.8 |
| 20260901121600 | 65 | 233 | 0.9 | 4.3 | 0.00 | 0.00 | 0.00 | 85 | 1017.8 |
| 20260901120104 | 64 | 253 | 0.9 | 3.5 | 0.00 | 0.00 | 0.00 | 84 | 1017.8 |
| 20260901114555 | 64 | 259 | 2.6 | 5.2 | 0.00 | 0.00 | 0.00 | 85 | 1017.5 |
| 20260901113111 | 63 | 230 | 1.7 | 4.3 | 0.00 | 0.00 | 0.00 | 86 | 1017.4 |
| 20260901111549 | 62 | 226 | 1.7 | 4.3 | 0.00 | 0.00 | 0.00 | 88 | 1017.5 |
| 20260901104545 | 60 | 260 | 0.9 | 2.6 | 0.00 | 0.00 | 0.00 | 91 | 1017.4 |
| 20260901103037 | 58 | 272 | 0.9 | 1.7 | 0.00 | 0.00 | 0.00 | 92 | 1017.5 |
| 20260901101559 | 54 | 15 | 0.0 | 0.0 | 0.00 | 0.00 | 0.00 | 93 | 1017.4 |
| 20260901100037 | 53 | 14 | 0.0 | 0.9 | 0.00 | 0.00 | 0.00 | 92 | 1017.4 |
| 20260901094535 | 53 | 13 | 0.0 | 0.9 | 0.00 | 0.00 | 0.00 | 93 | 1017.3 |
| 20260901093035 | 53 | 13 | 0.0 | 0.0 | 0.00 | 0.00 | 0.00 | 92 | 1017.2 |
| 20260901091533 | 54 | 13 | 0.0 | 0.0 | 0.00 | 0.00 | 0.00 | 92 | 1017.1 |
| 20260901090034 | 54 | 13 | 0.0 | 0.0 | 0.00 | 0.00 | 0.00 | 92 | 1017.0 |
| 20260901084539 | 55 | 13 | 0.0 | 0.9 | 0.00 | 0.02 | 0.00 | 91 | 1016.8 |
| 20260901083035 | 56 | 260 | 0.0 | 0.9 | 0.00 | 0.02 | 0.00 | 91 | 1016.7 |
| 20260901081528 | 57 | 263 | 0.0 | 2.6 | 0.00 | 0.02 | 0.00 | 91 | 1016.7 |
| 20260901080037 | 57 | 262 | 0.0 | 2.6 | 0.00 | 0.02 | 0.00 | 91 | 1016.8 |
| 20260901074528 | 57 | 288 | 0.0 | 1.7 | 0.00 | 0.02 | 0.00 | 91 | 1016.8 |
| 20260901073028 | 58 | 261 | 0.0 | 2.6 | 0.00 | 0.02 | 0.00 | 91 | 1016.8 |
| 20260901071526 | 58 | 261 | 0.0 | 1.7 | 0.00 | 0.02 | 0.00 | 91 | 1017.0 |
| 20260901070023 | 58 | 269 | 0.9 | 2.6 | 0.00 | 0.02 | 0.00 | 92 | 1016.8 |
| 20260901064526 | 58 | 333 | 0.0 | 1.7 | 0.00 | 0.03 | 0.00 | 91 | 1016.9 |
| 20260901063020 | 58 | 302 | 0.0 | 1.7 | 0.00 | 0.03 | 0.00 | 91 | 1016.8 |
| 20260901061519 | 58 | 324 | 0.0 | 0.9 | 0.00 | 0.03 | 0.00 | 91 | 1016.8 |
| 20260901060018 | 57 | 248 | 0.0 | 1.7 | 0.00 | 0.03 | 0.00 | 92 | 1016.9 |
| 20260901054515 | 56 | 279 | 0.0 | 0.9 | 0.00 | 0.05 | 0.00 | 92 | 1016.9 |
| 20260901053018 | 56 | 278 | 0.0 | 0.9 | 0.00 | 0.05 | 0.00 | 92 | 1016.7 |
| 20260901051513 | 53 | 23 | 0.0 | 0.0 | 0.00 | 0.05 | 0.00 | 92 | 1016.8 |
| 20260901050011 | 53 | 23 | 0.0 | 0.9 | 0.00 | 0.05 | 0.00 | 91 | 1016.8 |
| 20260901044514 | 55 | 262 | 0.0 | 0.0 | 0.00 | 0.06 | 0.00 | 91 | 1016.9 |
| 20260901043016 | 55 | 262 | 0.0 | 0.0 | 0.00 | 0.06 | 0.00 | 90 | 1017.0 |
| 20260901041508 | 55 | 265 | 0.0 | 1.7 | 0.00 | 0.06 | 0.00 | 91 | 1017.1 |
| 20260901040007 | 54 | 359 | 0.0 | 0.9 | 0.00 | 0.06 | 0.00 | 90 | 1017.1 |
| 20260901034505 | 56 | 359 | 0.0 | 0.9 | 0.00 | 0.08 | 0.00 | 90 | 1017.0 |
| 20260901033002 | 55 | 1 | 0.0 | 0.9 | 0.00 | 0.08 | 0.00 | 91 | 1016.9 |
| 20260901031600 | 53 | 22 | 0.0 | 0.9 | 0.00 | 0.08 | 0.00 | 90 | 1016.8 |
| 20260901030056 | 54 | 280 | 0.0 | 0.0 | 0.00 | 0.08 | 0.00 | 90 | 1016.7 |
| 20260901024557 | 54 | 281 | 0.0 | 0.0 | 0.00 | 0.08 | 0.08 | 88 | 1016.8 |
| 20260901023050 | 56 | 280 | 0.0 | 0.9 | 0.00 | 0.08 | 0.08 | 87 | 1016.8 |
| 20260901021607 | 57 | 280 | 0.0 | 0.0 | 0.00 | 0.08 | 0.08 | 87 | 1016.8 |
| 20260901020101 | 57 | 280 | 0.0 | 0.0 | 0.00 | 0.08 | 0.08 | 85 | 1016.9 |
| 20260901014548 | 58 | 280 | 0.0 | 0.9 | 0.00 | 0.09 | 0.08 | 84 | 1016.7 |
| 20260901013046 | 58 | 277 | 0.0 | 0.9 | 0.00 | 0.09 | 0.08 | 84 | 1016.8 |
| 20260901011543 | 58 | 277 | 0.0 | 0.0 | 0.00 | 0.09 | 0.08 | 84 | 1016.7 |
| 20260901010043 | 58 | 277 | 0.0 | 0.9 | 0.00 | 0.09 | 0.08 | 85 | 1016.7 |
| 20260901004542 | 58 | 277 | 0.0 | 0.0 | 0.00 | 0.09 | 0.08 | 84 | 1016.5 |
| 20260901003046 | 59 | 277 | 0.0 | 0.9 | 0.00 | 0.09 | 0.08 | 83 | 1016.5 |
| 20260901001555 | 59 | 276 | 0.0 | 0.9 | 0.00 | 0.09 | 0.08 | 83 | 1016.4 |
| 20260901000039 | 59 | 277 | 0.0 | 0.9 | 0.00 | 0.09 | 0.08 | 82 | 1016.3 |
| 20260831234543 | 60 | 277 | 0.0 | 0.0 | 0.00 | 0.09 | 0.08 | 81 | 1016.0 |
| 20260831233043 | 61 | 277 | 0.0 | 0.0 | 0.00 | 0.09 | 0.08 | 80 | 1015.8 |
| 20260831231534 | 61 | 277 | 0.0 | 0.9 | 0.00 | 0.09 | 0.08 | 79 | 1015.8 |
| 20260831230032 | 62 | 277 | 0.0 | 0.9 | 0.00 | 0.09 | 0.08 | 77 | 1015.7 |
| 20260831224530 | 63 | 278 | 0.0 | 0.0 | 0.00 | 0.09 | 0.08 | 75 | 1015.7 |
| 20260831223032 | 64 | 278 | 0.0 | 0.9 | 0.00 | 0.09 | 0.08 | 72 | 1015.6 |
| 20260831221529 | 66 | 297 | 0.0 | 1.7 | 0.00 | 0.09 | 0.08 | 69 | 1015.5 |
| 20260831220029 | 67 | 245 | 0.0 | 3.5 | 0.00 | 0.09 | 0.08 | 66 | 1015.5 |
| 20260831214526 | 68 | 240 | 0.0 | 5.2 | 0.00 | 0.09 | 0.08 | 64 | 1015.3 |
| 20260831213033 | 68 | 332 | 0.9 | 4.3 | 0.00 | 0.09 | 0.08 | 64 | 1015.2 |
| 20260831211523 | 69 | 260 | 0.9 | 4.3 | 0.00 | 0.09 | 0.08 | 63 | 1015.0 |
| 20260831210022 | 71 | 27 | 0.9 | 7.0 | 0.00 | 0.09 | 0.08 | 60 | 1014.7 |
| 20260831204519 | 71 | 262 | 0.0 | 7.8 | 0.00 | 0.09 | 0.08 | 60 | 1014.5 |
| 20260831203020 | 72 | 66 | 0.0 | 4.3 | 0.00 | 0.09 | 0.08 | 60 | 1014.6 |
| 20260831201518 | 72 | 67 | 0.9 | 7.8 | 0.00 | 0.09 | 0.08 | 61 | 1014.4 |
| 20260831200023 | 73 | 46 | 0.9 | 8.7 | 0.00 | 0.09 | 0.08 | 58 | 1014.3 |
| 20260831194531 | 72 | 309 | 0.9 | 5.2 | 0.00 | 0.09 | 0.08 | 57 | 1014.2 |
| 20260831193017 | 75 | 57 | 1.7 | 8.7 | 0.00 | 0.09 | 0.08 | 53 | 1014.1 |
| 20260831191512 | 75 | 346 | 0.9 | 7.0 | 0.00 | 0.09 | 0.08 | 54 | 1013.9 |
| 20260831190013 | 75 | 259 | 0.9 | 5.2 | 0.00 | 0.09 | 0.08 | 51 | 1013.9 |
| 20260831184519 | 75 | 192 | 0.9 | 8.7 | 0.00 | 0.09 | 0.08 | 53 | 1013.7 |
| 20260831183009 | 75 | 6 | 1.7 | 7.0 | 0.00 | 0.09 | 0.08 | 52 | 1013.7 |
| 20260831181516 | 74 | 18 | 1.7 | 5.2 | 0.00 | 0.09 | 0.08 | 51 | 1013.6 |
| 20260831180009 | 74 | 335 | 1.7 | 7.8 | 0.00 | 0.09 | 0.08 | 51 | 1013.5 |
| 20260831174508 | 74 | 44 | 2.6 | 6.1 | 0.00 | 0.09 | 0.08 | 51 | 1013.6 |
| 20260831173006 | 75 | 253 | 0.9 | 7.0 | 0.00 | 0.09 | 0.08 | 51 | 1013.5 |
| 20260831171504 | 74 | 289 | 0.9 | 6.1 | 0.00 | 0.09 | 0.08 | 54 | 1013.6 |
| 20260831170002 | 74 | 53 | 1.7 | 6.1 | 0.00 | 0.09 | 0.08 | 50 | 1013.4 |
| 20260831164501 | 74 | 79 | 2.6 | 7.0 | 0.00 | 0.09 | 0.08 | 51 | 1013.6 |
| 20260831163100 | 74 | 95 | 0.9 | 4.3 | 0.00 | 0.09 | 0.08 | 52 | 1013.6 |
| 20260831161556 | 73 | 277 | 0.9 | 7.8 | 0.00 | 0.09 | 0.08 | 51 | 1013.5 |
| 20260831160055 | 73 | 276 | 1.7 | 5.2 | 0.00 | 0.09 | 0.08 | 55 | 1013.5 |
| 20260831154553 | 72 | 18 | 1.7 | 7.8 | 0.00 | 0.09 | 0.08 | 55 | 1013.4 |
| 20260831153055 | 73 | 296 | 0.9 | 7.0 | 0.00 | 0.09 | 0.08 | 59 | 1013.3 |
| 20260831151558 | 72 | 236 | 1.7 | 6.1 | 0.00 | 0.09 | 0.08 | 58 | 1013.5 |
| 20260831150049 | 71 | 326 | 2.6 | 7.8 | 0.00 | 0.09 | 0.08 | 56 | 1013.5 |
| 20260831144554 | 71 | 41 | 0.9 | 5.2 | 0.00 | 0.09 | 0.08 | 65 | 1013.6 |
| 20260831143044 | 70 | 72 | 0.9 | 7.0 | 0.00 | 0.09 | 0.08 | 63 | 1013.7 |
| 20260831141534 | 70 | 331 | 2.6 | 6.1 | 0.00 | 0.09 | 0.08 | 64 | 1013.6 |
| 20260831140033 | 69 | 289 | 2.6 | 6.1 | 0.00 | 0.09 | 0.08 | 67 | 1013.5 |
| 20260831134528 | 68 | 15 | 0.9 | 5.2 | 0.00 | 0.09 | 0.08 | 69 | 1013.3 |
| 20260831133025 | 67 | 226 | 0.9 | 6.1 | 0.00 | 0.09 | 0.08 | 73 | 1013.3 |